Location: Audinghen
(50.8518°N, 1.6129°E)
Time: 04:13:39
(UTC+00:00)

CSL-04 DEB - Pass Details

Date: 07 August 2020
Orbit: 546 x 627 km, 98.7° (Epoch: 19 September)

Event Time Altitude Azimuth Distance (km) Brightness Sun altitude
Rises 03:04:22 0° 162° (SSE) 2,707 7.6 -11.6°
Reaches altitude 10° 03:06:28 10° 162° (SSE) 1,816 6.7 -11.4°
Maximum altitude 03:10:23 86° 74° (ENE) 556 4.3 -10.9°
Drops below altitude 10° 03:14:21 10° 345° (NNW) 1,837 7.4 -10.5°
Sets 03:16:29 0° 345° (NNW) 2,742 8.3 -10.2°
